Middlebury State AP, Middlebu, VT

7:09 AM EST on November 17, 2019 (GMT -0500)
Middlebury State AP, Middlebu

Weather History for K6B0 - September, 2019

Change the Weather History Date:

Wednesday, September 25, 2019

  Actual Average (WUND) Record (WUND)
Temperature  
Mean Temperature 58 °F -  
Max Temperature 67 °F - - (-1)
Min Temperature 49 °F - - (-1)
Degree Days  
Heating Degree Days 7    
Growing Degree Days 8 (Base 50)    
Moisture  
Dew Point 51 °F    
Average Humidity 77    
Maximum Humidity 98    
Minimum Humidity 54    
Precipitation  
Precipitation 0.00 in - - ()
Sea Level Pressure  
Sea Level Pressure 29.84 in    
Wind  
Wind Speed 1 mph ()    
Max Wind Speed 9 mph    
Max Gust Speed -    
Visibility 9.9 miles    
Events      
Averages and records for this station are not official NWS values.
T = Trace of Precipitation, MM = Missing Value Source: Averaged Metar Reports

Daily Weather History Graph

Daily Weather History Graph

Search for Another Location

Airport or City:

Astronomy

Sep. 25, 2019 Rise Set
Actual Time 6:42 AM EDT 6:44 PM EDT
Civil Twilight 6:13 AM EDT 7:13 PM EDT
Nautical Twilight 5:40 AM EDT 7:47 PM EDT
Astronomical Twilight 5:05 AM EDT 8:21 PM EDT
Moon 2:21 AM EDT (9/25) 5:24 PM EDT (9/25)
Length of Visible Light 12h 59m
Length of Day
12h 01m
Waning Crescent, 14% of the Moon is Illuminated
Sep 25
Waning Crescent
Sep 28
New
Oct 5
First Quarter
Oct 13
Full
Oct 21
Last Quarter

Hourly Weather History & Observations

Time (EDT) Temp. Dew Point Humidity Pressure Visibility Wind Dir Wind Speed Gust Speed Precip Events Conditions
12:15 AM 53.2 °F 52.3 °F 97% 29.84 in 10.0 mi Calm Calm - N/A   Overcast
12:16 AM 53.2 °F 52.3 °F 97% 29.84 in 10.0 mi Calm Calm - N/A   Overcast
12:35 AM 53.2 °F 52.2 °F 96% 29.84 in 10.0 mi Calm Calm - N/A   Overcast
12:36 AM 53.2 °F 52.2 °F 96% 29.84 in 10.0 mi Calm Calm - N/A   Overcast
12:55 AM 53.2 °F 52.3 °F 97% 29.84 in 10.0 mi Calm Calm - N/A   Overcast
1:17 AM 53.4 °F 52.5 °F 97% 29.84 in 10.0 mi Calm Calm - N/A   Overcast
1:36 AM 53.1 °F 52.2 °F 97% 29.84 in 10.0 mi Calm Calm - N/A   Overcast
1:55 AM 53.1 °F 52.2 °F 97% 29.84 in 10.0 mi Calm Calm - N/A   Overcast
1:56 AM 53.1 °F 52.2 °F 97% 29.84 in 10.0 mi Calm Calm - N/A   Overcast
2:15 AM 52.9 °F 52.0 °F 97% 29.84 in 10.0 mi Calm Calm - N/A   Overcast
2:19 AM 52.9 °F 52.0 °F 97% 29.84 in 10.0 mi Calm Calm - N/A   Overcast
2:37 AM 52.7 °F 51.8 °F 97% 29.84 in 10.0 mi Calm Calm - N/A   Overcast
2:56 AM 52.7 °F 51.3 °F 95% 29.83 in 10.0 mi Calm Calm - N/A   Overcast
3:15 AM 52.7 °F 51.8 °F 97% 29.83 in 10.0 mi Calm Calm - N/A   Overcast
3:16 AM 52.7 °F 51.8 °F 97% 29.83 in 10.0 mi Calm Calm - N/A   Overcast
3:35 AM 52.7 °F 51.8 °F 97% 29.84 in 10.0 mi Calm Calm - N/A   Overcast
3:39 AM 52.7 °F 51.8 °F 97% 29.84 in 10.0 mi Calm Calm - N/A   Overcast
3:57 AM 52.9 °F 52.0 °F 97% 29.85 in 10.0 mi Calm Calm - N/A   Overcast
4:16 AM 52.7 °F 51.8 °F 97% 29.86 in 10.0 mi Calm Calm - N/A   Overcast
4:35 AM 52.7 °F 51.8 °F 97% 29.87 in 10.0 mi Calm Calm - N/A   Overcast
4:36 AM 52.7 °F 51.8 °F 97% 29.87 in 10.0 mi Calm Calm - N/A   Overcast
4:55 AM 52.7 °F 52.0 °F 97% 29.87 in 10.0 mi Calm Calm - N/A   Overcast
5:00 AM 52.7 °F 52.0 °F 97% 29.87 in 10.0 mi Calm Calm - N/A   Overcast
5:18 AM 52.7 °F 51.8 °F 97% 29.87 in 10.0 mi Calm Calm - N/A   Overcast
5:36 AM 52.5 °F 51.8 °F 97% 29.87 in 10.0 mi Calm Calm - N/A   Overcast
5:55 AM 52.0 °F 51.3 °F 97% 29.86 in 10.0 mi Calm Calm - N/A   Overcast
5:56 AM 52.0 °F 51.3 °F 97% 29.86 in 10.0 mi Calm Calm - N/A   Overcast
6:15 AM 51.1 °F 50.4 °F 97% 29.87 in 10.0 mi Calm Calm - N/A   Mostly Cloudy
6:16 AM 51.1 °F 50.4 °F 97% 29.87 in 10.0 mi Calm Calm - N/A   Mostly Cloudy
6:38 AM 49.8 °F 49.3 °F 98% 29.88 in 1.8 mi Calm Calm - N/A   Mostly Cloudy
6:56 AM 49.8 °F 49.3 °F 98% 29.89 in 10.0 mi Calm Calm - N/A   Clear
7:35 AM 50.5 °F 50.0 °F 98% 29.90 in 10.0 mi Calm Calm - N/A   Overcast
7:55 AM 51.1 °F 50.5 °F 98% 29.90 in 10.0 mi Calm Calm - N/A   Overcast
7:59 AM 51.1 °F 50.4 °F 97% 29.90 in 10.0 mi Calm Calm - N/A   Overcast
8:17 AM 52.0 °F 51.1 °F 97% 29.90 in 10.0 mi Calm Calm - N/A   Overcast
8:35 AM 53.2 °F 51.1 °F 92% 29.90 in 10.0 mi Calm Calm - N/A   Overcast
8:55 AM 54.7 °F 49.6 °F 83% 29.90 in 10.0 mi Calm Calm - N/A   Mostly Cloudy
8:56 AM 54.7 °F 49.6 °F 83% 29.90 in 10.0 mi Calm Calm - N/A   Mostly Cloudy
9:15 AM 56.7 °F 49.5 °F 77% 29.89 in 10.0 mi Calm Calm - N/A   Scattered Clouds
9:16 AM 56.7 °F 49.5 °F 77% 29.89 in 10.0 mi Calm Calm - N/A   Scattered Clouds
9:38 AM 58.3 °F 49.5 °F 72% 29.90 in 10.0 mi Calm Calm - N/A   Clear
9:56 AM 58.3 °F 50.2 °F 74% 29.90 in 10.0 mi West 4.6 mph - N/A   Scattered Clouds
10:35 AM 58.5 °F 50.4 °F 74% 29.90 in 10.0 mi Calm Calm - N/A   Mostly Cloudy
10:36 AM 58.6 °F 50.2 °F 73% 29.89 in 10.0 mi Calm Calm - N/A   Mostly Cloudy
10:55 AM 59.2 °F 48.4 °F 67% 29.89 in 10.0 mi Calm Calm - N/A   Mostly Cloudy
11:17 AM 59.9 °F 49.6 °F 69% 29.90 in 10.0 mi Calm Calm - N/A   Overcast
11:35 AM 60.6 °F 49.8 °F 68% 29.89 in 10.0 mi Calm Calm - N/A   Overcast
11:55 AM 61.7 °F 48.9 °F 63% 29.88 in 10.0 mi North 4.6 mph - N/A   Overcast
11:56 AM 61.7 °F 48.9 °F 63% 29.88 in 10.0 mi North 4.6 mph - N/A   Overcast
12:15 PM 62.4 °F 49.3 °F 62% 29.87 in 10.0 mi NNE 3.5 mph - N/A   Mostly Cloudy
12:16 PM 62.4 °F 48.9 °F 61% 29.87 in 10.0 mi North 3.5 mph - N/A   Mostly Cloudy
12:38 PM 61.7 °F 47.8 °F 60% 29.87 in 10.0 mi North 3.5 mph - N/A   Scattered Clouds
12:56 PM 62.1 °F 47.3 °F 58% 29.86 in 10.0 mi Calm Calm - N/A   Scattered Clouds
1:16 PM 63.9 °F 48.2 °F 57% 29.84 in 10.0 mi Calm Calm - N/A   Clear
1:35 PM 62.1 °F 52.0 °F 70% 29.84 in 10.0 mi Calm Calm - N/A   Scattered Clouds
1:36 PM 62.4 °F 51.4 °F 67% 29.84 in 10.0 mi Calm Calm - N/A   Scattered Clouds
1:55 PM 64.9 °F 48.0 °F 54% 29.84 in 10.0 mi Calm Calm - N/A   Scattered Clouds
1:59 PM 64.6 °F 47.5 °F 54% 29.84 in 10.0 mi Calm Calm - N/A   Scattered Clouds
2:17 PM 64.9 °F 49.5 °F 57% 29.83 in 10.0 mi NE 3.5 mph - N/A   Clear
2:35 PM 65.7 °F 49.6 °F 56% 29.82 in 10.0 mi South 3.5 mph - N/A   Clear
2:55 PM 65.8 °F 48.9 °F 54% 29.82 in 10.0 mi Calm Calm - N/A   Clear
2:56 PM 66.0 °F 49.1 °F 54% 29.82 in 10.0 mi South 5.8 mph - N/A   Clear
3:15 PM 66.6 °F 49.6 °F 54% 29.81 in 10.0 mi SSE 5.8 mph - N/A   Clear
3:38 PM 66.2 °F 49.8 °F 55% 29.79 in 10.0 mi South 4.6 mph - N/A   Clear
3:56 PM 67.1 °F 50.2 °F 55% 29.79 in 10.0 mi South 6.9 mph - N/A   Clear
4:16 PM 67.1 °F 50.0 °F 54% 29.79 in 10.0 mi South 9.2 mph - N/A   Clear
4:35 PM 66.7 °F 50.0 °F 55% 29.80 in 10.0 mi South 6.9 mph - N/A   Clear
4:36 PM 66.7 °F 50.2 °F 55% 29.80 in 10.0 mi South 9.2 mph - N/A   Clear
4:55 PM 67.1 °F 49.8 °F 54% 29.79 in 10.0 mi SSE 4.6 mph - N/A   Clear
5:17 PM 66.7 °F 51.3 °F 57% 29.78 in 10.0 mi SSE 3.5 mph - N/A   Clear
5:35 PM 65.8 °F 51.8 °F 60% 29.79 in 10.0 mi SSE 5.8 mph - N/A   Clear
5:55 PM 64.8 °F 52.5 °F 64% 29.80 in 10.0 mi SSE 3.5 mph - N/A   Clear
6:15 PM 63.5 °F 52.0 °F 66% 29.80 in 10.0 mi SSE 4.6 mph - N/A   Clear
6:38 PM 61.7 °F 51.8 °F 70% 29.81 in 10.0 mi SE 3.5 mph - N/A   Clear
6:56 PM 61.5 °F 51.1 °F 69% 29.81 in 10.0 mi SSE 4.6 mph - N/A   Clear
7:16 PM 61.5 °F 51.1 °F 69% 29.80 in 10.0 mi SSE 4.6 mph - N/A   Clear
7:35 PM 62.6 °F 50.4 °F 64% 29.80 in 10.0 mi SSE 5.8 mph - N/A   Clear
7:36 PM 62.6 °F 50.4 °F 64% 29.80 in 10.0 mi SSE 8.1 mph - N/A   Clear
7:55 PM 61.9 °F 50.5 °F 66% 29.80 in 10.0 mi SSE 5.8 mph - N/A   Clear
7:59 PM 62.1 °F 50.7 °F 66% 29.80 in 10.0 mi SSE 4.6 mph - N/A   Clear
8:17 PM 62.2 °F 50.4 °F 65% 29.80 in 10.0 mi SSE 4.6 mph - N/A   Clear
8:35 PM 61.2 °F 51.3 °F 70% 29.81 in 10.0 mi South 4.6 mph - N/A   Clear
8:55 PM 62.4 °F 50.9 °F 66% 29.81 in 10.0 mi SSE 5.8 mph - N/A   Clear
8:56 PM 62.4 °F 50.9 °F 66% 29.81 in 10.0 mi SSE 5.8 mph - N/A   Clear
9:15 PM 62.8 °F 51.1 °F 66% 29.81 in 10.0 mi SSE 6.9 mph - N/A   Clear
9:16 PM 62.8 °F 50.9 °F 65% 29.81 in 10.0 mi SSE 5.8 mph - N/A   Clear
9:38 PM 60.6 °F 51.8 °F 73% 29.81 in 10.0 mi SSE 3.5 mph - N/A   Clear
9:56 PM 61.0 °F 52.0 °F 72% 29.81 in 10.0 mi SE 4.6 mph - N/A   Clear
10:16 PM 63.0 °F 51.6 °F 66% 29.81 in 10.0 mi SSE 5.8 mph - N/A   Clear
10:35 PM 61.0 °F 52.0 °F 72% 29.82 in 10.0 mi South 4.6 mph - N/A   Clear
10:36 PM 60.8 °F 52.0 °F 73% 29.82 in 10.0 mi South 4.6 mph - N/A   Clear
10:55 PM 59.0 °F 52.3 °F 79% 29.82 in 10.0 mi SSE 5.8 mph - N/A   Clear
11:18 PM 60.8 °F 51.8 °F 72% 29.81 in 10.0 mi SSE 3.5 mph - N/A   Clear
11:36 PM 61.9 °F 51.8 °F 69% 29.81 in 10.0 mi SSE 6.9 mph - N/A   Clear
11:55 PM 63.1 °F 51.3 °F 65% 29.80 in 10.0 mi South 5.8 mph - N/A   Mostly Cloudy
11:56 PM 63.1 °F 51.3 °F 65% 29.80 in 10.0 mi South 5.8 mph - N/A   Mostly Cloudy